SCP
3 4 5 7 7 7 6 5 3 2 2 1 1 1 2 2 2 2 2 2 2 2 3 2 2 2 2 2 3 3 3 3 3 3 2 2 1 2 2 2 2 2 2
3 3 4 5 6 6 5 4 3 3 2 2 1 2 2 2 2 2 2 2 2 2 2 2 2 2 2 2 3 3 3 3 3 3 3 3 2 2 2 1 1 2 2
3 3 2 3 3 4 4 4 3 3 2 2 2 2 2 2 2 3 3 3 2 2 2 2 1 1 1 2 2 2 3 3 3 3 3 3 2 1 1 1 1 1 1
3 3 2 2 2 3 3 3 3 3 3 3 3 3 3 3 3 3 3 3 2 2 2 1 1 1 1 1 2 2 2 2 2 2 2 3 2 2 2 2 2 2 1
3 3 3 3 2 2 3 3 3 4 4 5 5 4 4 4 4 4 4 3 3 2 2 1 1 1 1 1 1 1 1 1 1 1 2 2 2 3 3 3 3 2 2
2 3 3 3 3 3 3 3 4 4 5 5 5 5 5 5 4 4 4 4 3 2 2 2 1 1 1 1 1 1 1 1 1 2 2 2 3 3 4 4 4 3 3
3 3 3 3 3 3 3 3 4 4 5 5 5 5 5 5 5 4 4 4 4 3 3 2 2 2 2 2 1 1 1 1 1 2 2 3 3 3 4 4 4 3 2
3 3 4 4 4 4 4 4 4 4 5 4 4 4 4 5 4 3 3 4 4 4 3 3 3 2 2 2 2 2 2 1 1 2 2 2 2 2 3 3 3 2 1
3 3 4 5 5 5 5 5 5 5 5 5 4 4 4 4 3 2 2 3 4 4 4 4 4 3 2 2 2 2 2 2 2 2 2 2 1 1 2 2 2 2 1
3 3 3 4 5 5 5 6 5 5 5 5 5 5 5 5 4 2 2 4 5 5 4 4 4 3 2 1 1 1 1 1 1 1 1 1 1 1 1 1 2 2 2
3 3 3 3 5 6 6 6 6 5 5 4 5 5 5 5 4 3 2 4 5 6 5 5 4 3 1 1 1 1 1 1 1 1 1 1 1 1 1 2 2 3 3
4 3 3 4 6 7 6 5 5 5 5 4 4 4 5 5 5 4 2 2 4 5 5 6 5 3 1 0 1 1 1 1 1 1 1 0 0 0 1 1 2 3 3
4 4 4 5 7 7 6 5 5 5 5 4 3 3 4 4 5 4 2 1 2 3 5 5 5 3 1 1 1 1 1 1 1 1 1 0 0 0 0 1 1 2 2
3 3 4 5 7 7 7 6 6 6 6 5 4 4 3 4 4 4 3 1 1 2 3 4 4 3 2 3 2 1 1 1 1 1 1 0 0 0 0 0 1 1 1
2 3 3 4 5 7 7 7 7 6 6 5 5 5 4 4 3 3 2 1 1 2 3 4 4 4 4 5 5 4 2 2 1 1 0 0 0 0 0 0 1 1 0
2 2 2 4 5 6 8 8 7 5 4 3 3 4 4 3 2 2 1 1 1 1 2 4 5 5 6 6 7 6 4 3 1 0 0 0 0 0 0 1 0 0 0
2 2 2 4 5 7 8 9 8 6 3 2 2 2 2 2 1 1 0 0 0 0 1 3 5 6 6 7 7 6 4 2 1 0 0 0 0 1 1 0 0 0 0
2 2 2 4 6 8 10 11 10 7 4 2 1 1 1 0 0 0 0 0 0 1 1 3 4 6 6 6 6 4 3 1 1 0 0 0 0 0 0 0 0 0 0
2 2 2 4 7 10 12 13 12 9 5 3 2 2 1 1 0 0 0 0 1 1 1 2 3 5 5 4 3 2 1 0 0 0 0 0 0 0 0 0 0 0 0
1 1 2 4 8 11 13 14 12 8 4 3 3 3 2 1 1 1 0 1 1 1 1 1 2 2 2 2 1 0 0 0 0 0 0 0 0 0 0 0 0 0 0
1 1 2 5 8 11 13 13 10 7 4 3 3 3 2 2 2 1 1 1 1 2 2 1 1 1 1 0 0 0 0 0 0 0 0 0 0 0 0 0 0 0 0
1 1 3 6 8 9 10 9 7 5 4 4 4 3 2 2 2 2 1 1 1 2 1 1 1 0 0 0 0 0 0 0 0 0 0 0 0 0 0 0 0 0 0
1 2 4 7 8 7 6 5 4 4 4 5 5 5 3 2 2 2 1 1 1 1 1 1 0 0 0 0 0 0 0 0 0 0 0 0 0 0 0 0 0 0 0
2 3 5 6 6 5 5 4 4 4 5 6 7 6 5 3 2 2 2 2 1 1 1 1 0 0 0 0 0 0 0 0 0 0 0 0 0 0 0 0 0 0 0
4 4 5 5 4 4 4 4 4 4 5 7 8 7 6 4 2 2 2 2 1 1 1 0 0 0 0 0 0 0 0 0 0 0 0 0 0 0 0 0 0 0 0
4 4 4 4 3 2 2 2 3 4 6 8 8 7 5 4 3 2 2 2 1 1 1 0 0 0 0 0 0 0 0 0 0 0 0 0 0 0 0 0 0 0 0
Wind_Speed
5 4 3 3 3 3 2 2 2 2 2 2 2 2 2 1 1 1 1 1 1 1 1 1 2 2 1 1 1 2 2 2 3 3 2 2 1 2 2 2 2 2 1
4 4 4 3 3 3 3 3 2 2 2 2 2 2 2 2 2 2 2 2 2 2 2 2 3 2 2 2 1 2 2 2 3 3 2 2 2 2 2 2 2 1 1
4 4 3 3 3 3 3 2 2 2 2 2 2 2 2 2 2 2 2 2 3 3 3 3 3 2 3 2 2 2 2 2 2 2 3 2 2 2 2 2 2 1 2
2 3 3 3 4 3 3 3 3 3 3 2 2 3 3 2 2 2 2 2 2 3 3 3 3 3 3 3 2 3 2 2 2 2 2 2 2 2 1 2 2 2 2
3 2 3 3 2 2 2 3 3 3 3 2 2 2 2 2 2 2 2 2 2 3 3 3 3 3 4 3 3 3 3 2 2 2 2 2 2 1 2 2 2 2 2
3 3 2 2 2 3 3 2 2 2 2 2 2 2 2 2 2 3 2 2 2 3 3 3 3 3 3 3 3 4 4 3 3 3 3 3 3 3 2 2 2 2 2
3 3 3 3 3 3 3 2 3 3 2 3 3 3 3 3 3 3 3 2 3 3 3 3 2 2 2 2 2 3 3 4 4 4 4 4 4 3 3 3 2 3 3
2 2 2 2 3 2 2 2 3 2 2 3 3 3 3 3 2 3 3 2 2 3 3 3 3 3 2 2 2 2 3 3 3 3 4 5 4 3 4 4 3 3 2
3 2 2 2 2 2 2 2 2 2 2 2 2 2 2 3 3 3 3 2 2 3 3 3 3 3 2 1 1 2 3 3 3 2 3 3 3 3 2 1 1 1 2
3 3 3 3 3 3 3 3 2 2 2 1 1 2 2 3 3 2 3 2 3 3 3 3 3 3 3 2 2 2 3 4 2 1 1 2 2 2 3 3 3 3 2
2 2 3 3 4 4 3 2 2 2 2 2 2 2 3 3 3 2 3 2 3 3 3 3 2 2 3 3 3 3 5 3 2 2 1 1 1 1 1 2 3 3 3
2 2 3 3 3 3 3 3 2 3 2 3 3 3 2 2 2 3 3 4 3 3 3 3 3 3 3 3 3 3 2 2 1 1 1 1 1 1 2 2 2 3 3
2 3 3 3 3 3 3 3 2 2 3 3 3 3 3 2 2 3 4 4 3 3 3 3 3 3 2 2 2 1 1 1 1 1 1 1 1 1 1 2 2 1 1
1 3 3 2 3 3 2 3 3 3 3 3 3 3 3 2 2 2 2 2 2 2 2 2 1 1 1 1 1 1 1 1 1 2 2 1 1 1 1 1 1 1 1
1 3 3 2 2 2 2 2 3 3 4 4 4 3 3 3 4 3 2 2 2 2 1 0 0 0 0 1 0 0 0 1 1 1 1 0 0 1 1 1 1 1 1
2 2 2 2 2 1 2 1 2 3 4 5 4 4 4 4 4 3 4 3 3 2 2 1 1 2 2 2 2 1 1 1 1 1 1 1 1 1 1 1 1 1 1
2 3 2 2 2 1 2 2 2 2 1 2 3 3 3 3 3 3 3 2 2 3 1 2 2 2 2 2 2 2 2 2 2 2 2 1 1 1 1 1 1 1 1
2 3 2 2 2 2 2 2 2 2 2 2 2 2 3 3 3 2 2 2 1 1 2 2 3 2 2 2 2 2 2 1 1 1 2 1 2 2 1 1 1 1 1
2 2 2 2 1 1 1 1 1 2 2 1 1 1 1 1 2 1 2 1 2 2 3 3 2 2 2 2 2 2 2 1 1 1 1 1 1 1 1 1 1 1 1
2 2 1 1 1 0 1 1 1 2 1 1 1 1 0 0 0 1 1 1 2 2 2 2 2 1 1 1 1 1 1 1 1 1 1 1 1 1 1 1 1 1 1
1 2 1 0 0 0 1 1 1 2 2 1 1 1 1 1 1 1 1 1 2 2 2 2 1 1 1 1 1 1 1 1 1 1 1 1 1 1 1 1 1 1 1
1 1 1 1 1 0 0 0 0 0 1 1 0 0 2 1 1 1 1 1 1 1 1 1 1 1 1 1 1 1 1 1 1 1 1 1 1 1 1 1 0 0 0
0 0 1 1 1 1 1 1 0 0 0 1 0 0 0 1 1 0 1 1 1 1 1 0 0 0 0 0 1 1 2 2 2 2 2 2 2 2 2 1 1 1 0
1 1 0 0 0 0 0 0 0 0 0 1 0 0 1 1 1 1 1 1 1 1 1 1 1 1 0 0 0 0 1 1 1 2 3 2 2 2 2 1 1 1 1
1 1 1 1 0 0 0 0 1 1 1 1 0 0 1 0 1 1 1 1 1 0 1 1 1 1 0 0 1 1 1 1 0 0 1 2 2 2 2 2 2 2 1
1 1 1 1 0 0 0 0 1 1 1 1 1 0 0 0 1 1 1 1 0 0 0 0 0 0 1 1 1 1 1 0 0 0 1 1 1 1 2 1 2 2 2
Wind_Direction
173 175 174 181 192 186 191 208 211 211 205 205 208 206 203 205 192 180 207 205 204 232 235 220 248 247 242 243 224 214 216 207 232 268 267 276 272 292 308 301 292 279 285
177 170 178 185 183 189 202 213 205 207 211 213 211 211 219 219 208 200 220 224 219 232 243 239 253 249 246 247 233 228 223 214 216 252 274 279 264 274 286 288 296 290 282
173 172 179 186 192 201 209 212 210 216 221 217 209 219 229 230 225 222 220 230 235 240 244 244 249 244 254 246 234 234 232 227 218 233 263 265 266 283 294 292 295 300 292
162 176 191 202 205 206 208 206 213 215 216 220 225 231 235 233 228 223 219 231 240 252 255 249 246 238 242 237 232 229 221 224 235 242 257 265 267 274 258 284 302 303 292
154 187 211 208 204 201 202 206 212 218 221 216 221 235 239 229 225 215 227 234 239 256 263 256 247 239 238 231 227 216 207 214 231 243 254 262 262 268 262 264 273 292 281
168 194 200 202 206 211 213 201 201 213 220 214 221 227 237 240 232 213 207 232 236 241 256 264 261 258 255 244 236 226 211 210 221 231 243 246 252 248 255 252 266 279 283
180 195 198 199 206 219 219 206 211 216 211 218 229 224 236 248 243 226 210 214 229 240 245 253 261 272 265 259 253 243 240 229 212 214 231 244 247 239 235 249 248 251 254
181 192 198 196 205 201 197 212 229 225 212 216 228 231 236 254 243 227 221 222 237 246 242 238 245 262 260 249 258 269 270 261 240 227 230 240 245 234 221 234 246 262 278
199 205 204 190 190 189 198 215 219 212 220 225 227 227 246 267 255 228 199 225 244 256 255 248 245 254 267 237 220 251 272 280 274 258 253 257 258 246 214 201 212 228 266
222 216 213 205 202 205 211 218 216 207 223 229 250 242 240 261 268 239 205 220 244 262 269 263 251 251 245 205 209 231 257 272 281 297 313 311 284 248 218 212 211 219 250
245 218 218 214 212 211 210 211 202 207 225 237 247 250 246 256 270 250 219 219 231 244 255 264 264 250 238 224 216 229 243 250 243 237 247 324 345 321 289 257 235 223 232
268 252 244 233 226 217 201 212 205 201 216 240 251 264 265 269 274 272 246 234 232 230 247 254 255 242 234 228 227 249 247 234 227 228 219 264 286 303 314 308 278 256 248
256 260 258 244 227 216 205 211 208 208 218 233 238 253 274 279 277 274 260 248 243 240 253 256 253 235 231 234 241 223 182 185 205 226 239 255 271 286 315 326 336 323 314
264 268 259 243 235 227 210 204 209 214 221 228 237 248 262 268 271 274 269 264 263 264 281 286 263 219 214 233 213 209 203 201 205 230 249 273 309 325 323 327 319 325 337
258 262 262 253 232 228 225 218 214 221 218 217 228 228 236 255 260 255 248 249 246 243 218 187 2 341 296 291 274 259 219 187 207 221 217 231 276 293 309 319 315 321 321
267 272 263 261 254 237 233 257 240 228 228 226 229 228 244 250 259 241 250 253 250 197 161 204 235 237 239 244 242 232 222 221 222 216 218 221 228 243 270 305 290 297 313
251 263 264 254 250 243 229 219 251 293 297 245 239 235 241 255 243 235 239 230 195 164 187 235 245 247 245 242 234 225 230 233 218 198 210 225 227 230 229 240 246 264 281
272 264 261 249 241 236 231 226 221 224 253 287 275 252 248 246 239 234 195 129 132 203 239 240 246 245 241 236 229 224 220 213 214 210 201 214 221 214 211 226 235 251 259
277 272 259 256 247 235 234 228 225 228 232 254 295 316 287 271 258 240 161 174 218 236 248 251 251 246 243 240 236 225 218 213 220 224 213 201 213 216 222 237 239 233 243
275 288 281 249 234 224 229 223 222 220 221 234 239 246 283 14 307 306 256 257 248 248 251 253 251 251 242 235 232 221 216 216 206 219 224 204 187 206 228 240 239 237 244
261 278 293 301 267 225 235 222 219 214 210 227 251 247 210 219 232 246 256 259 253 250 246 250 244 230 231 232 221 217 213 213 199 212 217 207 174 185 241 260 253 238 252
251 277 289 288 312 336 304 274 155 198 208 211 264 242 191 182 204 234 260 277 279 281 265 230 220 222 220 217 207 209 217 218 222 223 216 191 181 181 172 153 146 307 301
215 293 354 347 349 13 24 21 34 316 298 295 283 111 172 233 258 276 275 288 305 309 303 264 245 287 287 248 225 207 219 238 235 214 198 187 185 187 179 177 186 196 197
196 177 182 297 353 30 18 350 345 335 351 333 323 280 242 241 253 275 295 315 337 349 352 337 296 287 335 32 337 258 252 268 252 210 192 186 188 191 190 188 206 223 216
194 194 202 228 245 262 287 325 339 347 355 350 0 297 265 256 276 294 314 323 326 337 336 327 325 326 310 340 7 344 354 8 337 235 167 167 170 174 187 198 206 214 218
159 168 178 180 177 204 283 339 349 15 6 354 10 356 297 266 275 291 303 297 282 284 310 313 349 8 351 331 349 3 360 1 83 94 145 153 163 180 187 192 200 209 207